Total_Precipitation_Accumulation
0.00 0.00 0.01 0.01 0.02 0.02 0.05 0.11 0.23 0.27 0.21 0.29 0.38 0.61 0.71 0.82 1.02 1.02 0.88 0.93 1.23 1.44 1.72 2.18 2.73 3.57 4.65 5.55 5.82 5.31 4.80 4.46 4.03 3.61 3.04 2.68 2.63 2.52 2.23 1.96 1.69 1.60 1.54 1.62
0.00 0.02 0.02 0.02 0.02 0.04 0.07 0.10 0.21 0.27 0.19 0.22 0.38 0.71 1.02 1.00 0.93 0.89 0.95 0.95 1.06 1.43 1.88 2.60 3.63 4.21 4.45 4.58 4.34 4.00 3.73 3.52 3.07 2.70 2.47 2.21 2.19 2.00 1.80 1.70 1.66 1.42 1.35 1.41
0.02 0.03 0.02 0.02 0.04 0.10 0.11 0.13 0.20 0.26 0.17 0.18 0.39 0.89 1.18 1.17 0.95 0.82 0.86 0.86 1.04 1.47 2.06 2.86 3.44 3.56 3.28 2.96 2.87 2.82 2.88 2.64 2.50 2.45 2.34 2.23 2.23 1.99 1.73 1.61 1.58 1.35 1.18 1.19
0.01 0.02 0.02 0.02 0.04 0.08 0.09 0.08 0.07 0.10 0.16 0.35 0.54 1.12 1.32 1.09 1.07 0.89 0.88 0.90 0.95 1.23 1.59 2.01 2.25 2.14 2.26 2.40 2.41 2.53 2.62 2.37 2.34 2.28 1.99 1.90 1.80 1.69 1.54 1.48 1.48 1.54 1.28 1.12
0.02 0.03 0.02 0.02 0.03 0.04 0.05 0.04 0.05 0.12 0.23 0.43 0.63 0.90 1.07 0.90 1.09 0.88 0.74 0.74 0.72 0.89 0.97 1.08 1.21 1.37 1.58 1.69 1.86 2.17 2.41 2.34 2.17 2.01 1.94 2.00 1.86 1.80 1.76 1.77 1.71 1.67 1.53 1.29
0.03 0.04 0.03 0.03 0.02 0.03 0.04 0.06 0.13 0.24 0.41 0.90 0.86 0.85 1.09 1.03 1.09 0.85 0.67 0.58 0.64 0.75 0.83 0.87 0.93 1.06 1.24 1.36 1.53 1.78 2.09 2.23 2.15 1.99 1.91 1.93 1.97 1.91 1.80 1.77 1.72 1.54 1.44 1.37
0.09 0.07 0.05 0.04 0.03 0.05 0.06 0.08 0.25 0.59 0.99 1.16 0.74 0.82 1.08 0.84 0.77 0.64 0.42 0.41 0.53 0.72 0.86 0.93 0.89 0.85 0.91 1.06 1.21 1.32 1.50 1.76 1.88 1.86 1.83 1.84 1.94 1.84 1.64 1.52 1.43 1.37 1.20 1.12
0.14 0.12 0.06 0.04 0.05 0.06 0.05 0.04 0.11 0.24 0.35 0.54 0.72 1.10 1.21 0.86 0.59 0.36 0.27 0.36 0.53 0.68 0.73 0.77 0.76 0.72 0.70 0.78 0.95 1.09 1.28 1.46 1.66 1.68 1.66 1.65 1.71 1.64 1.51 1.49 1.27 1.20 1.15 1.09
0.05 0.05 0.04 0.04 0.06 0.07 0.05 0.04 0.04 0.08 0.13 0.34 0.71 1.02 0.97 0.76 0.57 0.40 0.33 0.35 0.45 0.50 0.53 0.64 0.70 0.77 0.75 0.72 0.82 0.95 1.17 1.36 1.55 1.66 1.69 1.61 1.60 1.59 1.56 1.51 1.32 1.16 1.25 1.18
0.02 0.02 0.04 0.05 0.06 0.06 0.06 0.05 0.05 0.05 0.12 0.26 0.55 0.96 1.15 0.94 0.70 0.51 0.43 0.43 0.50 0.51 0.53 0.72 0.86 0.82 0.68 0.58 0.65 0.79 0.98 1.23 1.40 1.57 1.58 1.48 1.63 1.60 1.57 1.49 1.37 1.24 1.25 1.24
0.02 0.02 0.05 0.06 0.07 0.08 0.07 0.07 0.06 0.06 0.08 0.15 0.38 0.62 0.59 0.55 0.47 0.44 0.49 0.47 0.38 0.44 0.55 0.73 0.91 0.87 0.65 0.53 0.54 0.64 0.85 1.06 1.17 1.27 1.35 1.34 1.39 1.37 1.40 1.42 1.41 1.37 1.35 1.31
0.02 0.02 0.03 0.07 0.09 0.08 0.09 0.10 0.10 0.09 0.08 0.09 0.18 0.37 0.32 0.36 0.38 0.40 0.51 0.57 0.51 0.52 0.59 0.56 0.66 0.79 0.72 0.62 0.53 0.60 0.77 0.91 0.96 1.02 1.04 1.08 1.16 1.21 1.20 1.20 1.29 1.36 1.32 1.26
0.03 0.02 0.04 0.11 0.18 0.15 0.10 0.09 0.10 0.11 0.10 0.09 0.21 0.41 0.34 0.29 0.39 0.39 0.43 0.66 0.77 0.49 0.42 0.44 0.52 0.61 0.69 0.64 0.56 0.65 0.75 0.81 0.88 0.87 0.91 0.97 1.03 1.06 1.08 1.12 1.22 1.32 1.35 1.35
0.03 0.02 0.03 0.10 0.19 0.20 0.16 0.12 0.12 0.11 0.09 0.08 0.14 0.34 0.34 0.34 0.39 0.54 0.60 0.67 0.53 0.40 0.40 0.38 0.45 0.61 0.69 0.69 0.63 0.63 0.74 0.91 0.96 0.93 1.02 1.13 1.17 1.18 1.20 1.22 1.30 1.40 1.45 1.42
0.03 0.02 0.02 0.03 0.07 0.12 0.15 0.15 0.12 0.09 0.06 0.09 0.12 0.22 0.26 0.35 0.42 0.48 0.47 0.46 0.43 0.45 0.42 0.39 0.47 0.64 0.73 0.86 0.87 0.80 0.78 0.88 1.02 1.13 1.23 1.40 1.54 1.55 1.45 1.45 1.57 1.67 1.71 1.67
0.04 0.03 0.03 0.03 0.06 0.10 0.12 0.14 0.10 0.07 0.06 0.07 0.09 0.15 0.21 0.35 0.37 0.43 0.41 0.38 0.43 0.46 0.44 0.41 0.51 0.66 0.69 0.71 0.77 0.77 0.78 0.82 0.87 0.98 1.11 1.32 1.49 1.55 1.55 1.61 1.74 1.78 1.77 1.87
0.07 0.06 0.05 0.04 0.07 0.09 0.17 0.13 0.09 0.09 0.08 0.08 0.11 0.16 0.20 0.31 0.42 0.51 0.54 0.57 0.56 0.45 0.41 0.44 0.50 0.58 0.67 0.64 0.66 0.77 0.82 0.90 0.99 1.13 1.28 1.39 1.49 1.58 1.62 1.62 1.71 1.78 1.79 1.78
0.17 0.15 0.12 0.10 0.11 0.16 0.17 0.13 0.12 0.12 0.13 0.16 0.20 0.23 0.28 0.31 0.41 0.51 0.55 0.54 0.54 0.55 0.62 0.67 0.73 0.75 0.76 0.71 0.72 0.82 0.88 0.94 1.01 1.10 1.21 1.30 1.46 1.58 1.68 1.82 1.91 1.98 2.04 2.06
0.28 0.29 0.23 0.17 0.15 0.18 0.21 0.20 0.21 0.23 0.28 0.29 0.36 0.41 0.41 0.40 0.42 0.54 0.61 0.60 0.66 0.66 0.69 0.78 0.84 0.88 0.82 0.86 0.93 1.00 1.01 1.08 1.14 1.20 1.37 1.51 1.60 1.73 1.82 1.89 2.03 2.14 2.21 2.18
0.32 0.36 0.33 0.26 0.27 0.29 0.30 0.32 0.28 0.32 0.57 0.52 0.53 0.58 0.57 0.61 0.77 0.87 0.88 0.80 0.77 0.78 0.79 0.87 0.86 0.86 0.93 0.96 1.03 1.11 1.18 1.31 1.40 1.43 1.52 1.63 1.77 1.84 1.86 1.89 1.97 2.01 2.05 2.07
0.37 0.43 0.42 0.37 0.37 0.36 0.35 0.37 0.38 0.66 0.93 0.91 0.89 0.87 0.78 0.87 0.94 0.87 0.80 0.88 0.85 0.89 0.97 0.93 0.92 0.97 0.98 0.97 1.02 1.14 1.28 1.40 1.47 1.50 1.54 1.64 1.74 1.90 1.97 2.00 1.93 1.83 1.84 1.89
0.59 0.62 0.61 0.59 0.69 0.71 0.49 0.53 0.74 0.94 0.92 1.10 1.04 0.94 0.93 0.92 0.86 0.77 0.78 0.90 1.00 1.04 1.11 1.09 1.06 1.02 1.03 1.08 1.14 1.24 1.37 1.44 1.50 1.51 1.58 1.66 1.69 1.70 1.74 1.90 1.94 1.89 1.86 1.86
0.78 0.82 0.86 0.82 0.91 0.82 0.69 0.71 0.80 0.76 0.79 0.94 0.96 0.87 0.86 0.83 0.80 0.75 0.79 0.85 0.88 0.95 1.04 1.07 1.09 1.10 1.14 1.20 1.27 1.40 1.45 1.51 1.52 1.59 1.72 1.81 1.78 1.77 1.76 1.79 1.85 1.83 1.75 1.64
0.95 0.77 0.91 1.10 1.12 0.98 0.84 0.72 0.72 0.73 0.75 0.79 0.87 0.92 0.90 0.87 0.84 0.84 0.84 0.86 0.94 1.00 1.05 1.11 1.10 1.13 1.24 1.35 1.47 1.50 1.46 1.54 1.70 1.75 1.75 1.76 1.77 1.72 1.74 1.85 1.79 1.75 1.73 1.63
1.07 1.00 1.18 1.54 1.61 1.41 1.22 1.04 0.94 0.89 0.86 0.91 1.00 1.04 1.09 1.08 1.05 1.01 0.95 0.91 0.92 0.98 0.99 1.05 1.13 1.17 1.26 1.33 1.44 1.54 1.56 1.61 1.70 1.65 1.55 1.56 1.59 1.56 1.54 1.65 1.71 1.60 1.56 1.59
1.10 1.27 1.55 1.86 1.73 1.69 1.56 1.29 1.13 1.11 1.14 1.08 1.11 1.13 1.12 1.08 1.07 1.05 1.04 0.93 0.86 0.87 0.95 1.01 1.07 1.15 1.23 1.30 1.36 1.39 1.45 1.55 1.65 1.68 1.61 1.55 1.51 1.52 1.55 1.55 1.55 1.53 1.37 1.37